This demonstration page uses our WeatherBlox Daily Observations layout. Learn more.

Left ArrowRight Arrow

39.51506, -84.39828

Hourly Observations for June 12, 2016

Temp ( °F °C ) Dew Point ( °F °C ) Humidity (%) Winds ( mph kmh ) Pressure ( in mb ) Visibility ( mi km ) Precip ( " mm )
12:15 am 00:15 Clear 74 23.6 61 15.9 62 62 SSW 6 9 30.00 1016 10 16 N/A
12:35 am 00:35 Clear 74 23.6 61 16 63 63 SSW 7 11 30.00 1016 10 16 N/A
12:55 am 00:55 Clear 74 23.6 61 16.1 63 63 SW 7 11 30.00 1016 10 16 N/A
1:15 am 01:15 Clear 74 23.6 61 16.3 64 64 SSW 6 9 30.00 1016 10 16 N/A
1:35 am 01:35 Clear 74 23.6 63 17.3 68 68 SW 3 6 30.00 1016 10 16 N/A
1:55 am 01:55 Mostly Cloudy 74 23.6 65 18.3 72 72 SW 3 6 30.00 1016 10 16 N/A
2:15 am 02:15 Partly Cloudy 74 23.6 64 17.8 70 70 SSW 6 9 30.00 1016 10 16 N/A
2:35 am 02:35 Clear 74 23.6 64 17.6 69 69 SSW 6 9 30.00 1016 10 16 N/A
2:55 am 02:55 Clear 73 22.9 63 17.4 71 71 SSW 6 9 30.00 1016 10 16 N/A
3:15 am 03:15 Clear 72 22.3 62 16.7 71 71 SSW 5 7 30.00 1016 10 16 N/A
3:35 am 03:35 Clear 70 21.1 61 16.2 74 74 SSW 6 9 30.00 1016 10 16 N/A
3:55 am 03:55 Clear 69 20.8 62 16.4 76 76 SSW 5 7 30.00 1016 10 16 N/A
4:15 am 04:15 Clear 69 20.8 62 16.5 77 77 SW 3 6 30.00 1016 10 16 N/A
4:35 am 04:35 Clear 69 20.8 63 17 79 79 SSW 6 9 30.00 1016 10 16 N/A
4:55 am 04:55 Clear 69 20.8 62 16.5 77 77 SSW 6 9 30.00 1016 10 16 N/A
5:15 am 05:15 Clear 69 20.8 62 16.7 77 77 S 5 7 30.00 1016 10 16 N/A
5:35 am 05:35 Clear 69 20.8 62 16.8 78 78 S 3 6 30.00 1016 10 16 N/A
5:55 am 05:55 Clear 69 20.8 62 16.7 77 77 N N/A 30.00 1016 10 16 N/A
6:15 am 06:15 Partly Cloudy 69 20.8 63 17 79 79 N N/A 30.00 1016 10 16 N/A
6:35 am 06:35 Sunny 69 20.8 62 16.6 77 77 N N/A 30.00 1016 10 16 N/A
6:55 am 06:55 Sunny 70 21 62 16.8 77 77 N N/A 30.00 1016 10 16 N/A
7:15 am 07:15 Sunny 74 23.6 66 19 75 75 N N/A 30.00 1016 10 16 N/A
7:35 am 07:35 Sunny 76 24.2 64 17.5 66 66 WSW 3 6 30.00 1016 10 16 N/A
7:55 am 07:55 Sunny 77 25.1 64 17.5 63 63 WSW 6 9 30.00 1016 10 16 N/A
8:15 am 08:15 Partly Cloudy 78 25.7 64 17.6 61 61 WSW 6 9 30.00 1016 10 16 N/A
8:35 am 08:35 Sunny 80 26.5 64 18 60 60 W 3 6 30.00 1016 10 16 N/A
8:55 am 08:55 Sunny 80 26.8 64 17.8 58 58 W 6 9 30.00 1016 10 16 N/A
9:15 am 09:15 Sunny 81 27.3 64 18 57 57 NW 7 11 30.00 1016 10 16 N/A
9:35 am 09:35 Sunny 82 28 65 18.3 56 56 NW 5 7 30.03 1017 10 16 N/A
9:55 am 09:55 Sunny 82 28 65 18.6 57 57 NW 6 9 30.03 1017 10 16 N/A
10:15 am 10:15 Sunny 83 28.2 66 18.7 56 56 NW 6 9 30.03 1017 10 16 N/A
10:35 am 10:35 Sunny 84 29 67 19.4 56 56 WNW 6 9 30.00 1016 10 16 N/A
10:55 am 10:55 Sunny 85 29.3 67 19.3 55 55 WNW 3 6 30.00 1016 10 16 N/A
11:15 am 11:15 Sunny 87 30.7 69 20.5 55 55 WNW 7 11 30.00 1016 10 16 N/A
11:35 am 11:35 Sunny 88 30.9 69 20.6 54 54 W 6 9 30.00 1016 10 16 N/A
11:55 am 11:55 Partly Cloudy 87 30.8 69 20.5 54 54 NW 6 9 30.00 1016 10 16 N/A
12:15 pm 12:15 Mostly Cloudy 90 32 71 21.6 54 54 NW 8 13 30.00 1016 10 16 N/A
12:35 pm 12:35 Cloudy 88 31.1 69 20.8 54 54 NNW 8 13 30.00 1016 10 16 N/A
12:55 pm 12:55 Mostly Cloudy 90 32.1 69 20.7 51 51 N 9 15 29.97 1015 10 16 N/A
1:15 pm 13:15 Partly Cloudy 90 32.1 69 20.5 50 50 NW 8 13 29.97 1015 10 16 N/A
1:35 pm 13:35 Partly Cloudy 90 32.1 68 20.2 49 49 N 9 15 29.97 1015 10 16 N/A
1:55 pm 13:55 Partly Cloudy 90 32.1 67 19.5 47 47 NNW 8 13 29.97 1015 10 16 N/A
2:15 pm 14:15 Partly Cloudy 90 32.1 67 19.2 46 46 NNW 8 13 29.97 1015 10 16 N/A
2:35 pm 14:35 Sunny 90 32.1 64 18 43 43 NW 12 19 29.97 1015 10 16 N/A
2:55 pm 14:55 Sunny 90 32.1 62 16.5 39 39 N 8 13 29.97 1015 10 16 N/A
3:15 pm 15:15 Sunny 90 32.1 57 14 33 33 N 10 17 29.97 1015 10 16 N/A
3:35 pm 15:35 Sunny 90 32.1 57 14 33 33 NNW 3 6 29.97 1015 10 16 N/A
3:55 pm 15:55 Sunny 90 32.1 53 11.8 29 29 NW 8 13 29.97 1015 10 16 N/A
4:15 pm 16:15 Sunny 90 32.1 55 12.6 30 30 NNW 10 17 29.97 1015 10 16 N/A
4:35 pm 16:35 Sunny 90 32.1 55 12.7 31 31 N 13 20 29.94 1014 10 16 N/A
4:55 pm 16:55 Sunny 90 32.1 58 14.4 34 34 N 12 19 29.94 1014 10 16 N/A
5:15 pm 17:15 Sunny 90 32.1 56 13.2 32 32 N 8 13 29.97 1015 10 16 N/A
5:35 pm 17:35 Sunny 90 32.1 56 13.3 32 32 N 9 15 29.97 1015 10 16 N/A
5:55 pm 17:55 Sunny 88 30.9 55 12.5 32 32 N 10 17 29.97 1015 10 16 N/A
6:15 pm 18:15 Sunny 87 30.7 53 11.8 31 31 N 10 17 29.97 1015 10 16 N/A
6:35 pm 18:35 Sunny 86 30 52 11 31 31 N 9 15 29.97 1015 10 16 N/A
6:55 pm 18:55 Sunny 83 28.6 47 8.5 28 28 N 6 9 29.97 1015 10 16 N/A
7:15 pm 19:15 Sunny 82 28 45 7.3 27 27 N 8 13 30.00 1016 10 16 N/A
7:35 pm 19:35 Sunny 82 28 38 3.6 21 21 NNE 7 11 30.00 1016 10 16 N/A
7:55 pm 19:55 Sunny 82 27.7 33 0.3 17 17 N 7 11 30.00 1016 10 16 N/A
8:15 pm 20:15 Sunny 80 26.6 29 -1.8 15 15 N 6 9 30.00 1016 10 16 N/A
8:35 pm 20:35 Sunny 80 26.5 32 -0.2 17 17 N 5 7 30.00 1016 10 16 N/A
8:55 pm 20:55 Sunny 76 24.6 42 5.3 29 29 NNW 3 6 30.00 1016 10 16 N/A
9:15 pm 21:15 Clear 71 21.9 53 11.6 52 52 N N/A 30.03 1017 10 16 N/A
9:35 pm 21:35 Clear 69 20.8 55 12.7 60 60 NNW 3 6 30.03 1017 10 16 N/A
9:55 pm 21:55 Clear 69 20.8 47 8.3 45 45 N 5 7 30.03 1017 10 16 N/A
10:15 pm 22:15 Clear 69 20.8 49 9.4 48 48 N 3 6 30.03 1017 10 16 N/A
10:35 pm 22:35 Clear 69 20.8 50 10 50 50 N 5 7 30.03 1017 10 16 N/A
10:55 pm 22:55 Clear 64 18 47 8.2 53 53 N 3 6 30.03 1017 10 16 N/A
11:15 pm 23:15 Clear 67 19.5 49 9.4 52 52 N N/A 30.03 1017 10 16 N/A
11:35 pm 23:35 Clear 67 19.4 48 8.8 50 50 N N/A 30.03 1017 10 16 N/A
11:55 pm 23:55 Clear 65 18.4 48 9 54 54 NE 5 7 30.03 1017 10 16 N/A

Powered by AerisWeather